DMSP 5D-3 F16 (USA 172)

Last updated on Wed Sep 23 2026 00:03:10 GMT+0000 (Coordinated Universal Time)

1 28054U 03048A 26265.57927360 .00000026 00000+0 37002-4 0 9997 2 28054 98.9859 290.0365 0006258 225.2028 250.4198 14.14491477183256
UTC large
Height (km)
Speed (km/s)
/
Latitude / Longitude
Inclination (degrees)
Orbital Period (minutes)
Azimuth
Elevation
Range (km)
Doppler Factor

Next 0 passes for location: London (51.5072 / 0.1276)

No passes found over London.
DMSP 5D-3 F16 (USA 172)